Kuchera_Ratio
0.0 0.0 0.0 0.0 0.0 0.0 0.0 0.0 8.8 0.0 0.0 6.4 5.2 10.2 6.2 0.0 0.0 0.0 0.0 0.0 2.0 5.0 3.9 6.0 4.8 3.4 0.0 0.0 0.0 0.0 0.0 0.8 7.4 0.0 0.0 0.0 0.0 0.0 0.0 0.0 1.8 0.0 0.0 0.0
0.0 0.0 0.0 0.0 0.0 0.0 0.0 3.8 3.0 0.0 0.0 12.4 11.0 4.4 3.6 0.8 2.8 1.6 1.2 2.6 0.0 0.0 3.6 9.0 3.9 1.3 0.0 0.0 0.0 0.0 0.0 1.6 8.6 3.6 0.0 0.0 0.0 0.0 0.0 0.0 0.0 0.0 0.6 0.0
0.0 0.0 0.0 0.0 0.0 0.0 0.0 3.1 10.6 3.2 0.2 3.0 7.0 8.4 7.8 7.8 0.0 1.9 0.2 2.0 0.0 4.0 6.6 2.2 7.0 4.8 0.0 0.0 0.0 0.0 0.0 0.0 4.0 9.2 4.6 0.0 0.0 0.0 0.0 0.0 0.3 0.0 0.0 0.0
0.0 0.0 0.0 0.0 0.0 0.0 0.0 3.2 8.2 2.2 13.4 8.6 6.6 5.4 5.4 8.2 7.2 0.8 0.8 5.0 4.6 6.6 10.8 8.2 7.6 2.6 0.0 0.0 0.0 0.0 0.0 7.2 1.6 0.0 0.0 0.0 0.0 0.0 0.0 0.0 0.0 0.0 0.0 0.0
0.0 0.0 0.0 0.0 0.0 0.0 0.0 7.2 7.2 4.2 4.2 4.3 7.4 5.4 7.8 6.8 4.4 3.4 6.0 7.2 3.0 3.8 8.9 6.2 8.2 3.4 2.8 1.3 0.0 0.0 0.0 8.2 5.0 4.4 0.0 0.0 0.0 0.0 0.0 0.0 0.0 0.0 0.0 0.0
0.0 0.0 0.0 0.0 0.0 0.0 0.8 0.0 0.0 2.2 3.4 6.4 8.0 7.0 5.8 5.4 1.0 0.0 0.0 0.0 1.2 4.4 2.8 0.0 0.0 0.0 0.0 0.0 2.0 4.2 3.0 5.2 7.8 10.0 1.8 0.8 5.8 0.0 0.0 0.0 0.0 0.0 0.0 0.0
0.0 0.0 0.0 0.0 0.0 0.0 0.0 0.0 0.0 5.6 10.6 7.8 7.2 3.0 1.4 3.0 1.0 3.4 0.0 0.0 1.0 0.0 0.0 0.0 0.0 0.0 0.0 0.0 0.0 0.0 4.8 6.0 8.2 10.2 6.4 12.7 0.0 0.0 0.0 0.0 0.0 0.0 0.0 0.0
0.0 0.0 0.0 0.0 0.0 0.0 0.0 0.0 0.0 3.6 10.0 4.8 6.0 2.8 1.4 0.2 0.0 0.0 0.0 0.0 0.0 0.0 0.0 4.8 9.0 10.8 6.7 5.3 0.8 1.2 0.0 3.6 9.0 11.6 9.8 5.2 0.0 0.0 0.0 0.0 0.0 0.0 0.0 0.0
0.0 0.0 0.0 0.0 0.0 0.0 0.0 0.0 0.0 0.0 6.6 7.2 0.0 3.0 0.0 4.8 5.8 5.0 2.4 0.0 0.0 0.0 4.8 8.2 13.0 15.2 10.0 8.8 4.8 0.0 0.0 0.0 6.0 8.8 12.5 13.5 0.0 0.0 0.0 0.0 1.2 0.0 0.0 0.0
0.0 0.0 0.0 0.0 0.0 0.0 0.0 0.0 0.0 0.0 5.6 0.0 0.0 3.0 3.6 0.0 0.8 5.2 0.6 0.0 0.6 0.0 8.2 12.3 12.9 12.7 3.4 12.4 12.0 8.4 7.8 6.2 10.2 9.6 10.0 6.1 0.0 0.0 0.0 3.8 0.0 0.0 0.0 0.0
0.0 0.0 0.0 0.0 0.0 0.0 0.0 0.0 0.0 0.0 3.6 0.0 0.0 0.0 0.0 0.0 0.0 7.0 0.6 3.0 3.7 6.2 10.4 10.8 11.4 12.9 9.8 9.2 4.4 6.5 7.3 9.4 10.4 7.6 10.6 12.5 0.0 0.0 0.0 0.0 0.0 0.0 0.0 0.0
0.0 0.0 0.0 0.0 0.0 0.0 0.0 0.0 0.0 0.0 0.0 0.2 0.0 0.0 0.0 0.0 0.0 0.0 0.0 0.0 0.8 3.3 7.2 8.7 6.2 11.7 10.3 8.6 13.2 0.0 7.8 3.2 4.6 4.4 2.3 0.0 0.0 0.0 0.0 0.0 0.0 0.0 0.0 0.0
0.0 0.0 0.0 0.0 0.0 0.0 0.0 0.0 0.0 0.0 1.2 2.0 0.4 0.0 0.0 0.0 0.0 0.0 0.8 0.4 0.0 0.0 0.0 1.8 5.1 11.1 4.6 8.8 8.2 5.4 0.0 0.0 1.1 1.2 0.0 0.0 0.0 0.0 0.0 0.0 0.0 0.0 0.0 0.0
0.0 0.0 0.0 0.0 0.0 0.0 0.0 0.0 0.0 0.0 1.6 7.6 2.6 0.0 0.0 0.0 0.0 0.0 0.0 0.0 0.0 0.0 0.0 0.0 4.6 8.9 0.0 6.6 1.4 3.1 0.0 0.0 0.0 0.0 0.0 0.0 0.0 0.0 0.0 0.0 0.0 0.0 0.0 0.0
0.0 0.0 0.0 0.0 0.0 0.0 0.0 0.0 0.0 0.0 0.0 6.6 4.6 0.0 0.0 0.0 0.0 0.0 0.0 0.0 0.0 0.0 1.2 4.2 5.4 2.0 2.0 3.0 3.7 4.2 0.0 0.0 1.1 2.6 0.0 0.0 0.0 0.0 0.0 0.0 0.0 0.0 0.0 0.0
0.0 0.0 0.0 0.0 0.0 0.0 0.0 1.6 0.0 0.0 0.0 1.8 8.8 0.0 0.0 0.0 0.0 0.0 0.0 0.0 0.0 0.0 0.6 2.4 1.2 0.0 0.0 7.7 11.4 0.0 0.0 0.0 0.0 0.0 0.0 0.0 0.0 0.0 0.0 0.0 0.0 0.0 0.0 0.0
0.0 0.0 0.0 0.0 0.0 0.0 1.2 2.2 0.0 0.0 0.0 2.4 7.8 6.6 0.0 0.0 0.0 0.0 0.0 0.0 0.0 0.0 0.0 2.4 1.9 0.0 0.0 7.4 9.2 0.0 0.0 0.0 0.0 0.0 0.0 0.0 0.0 0.0 0.0 0.0 0.0 0.0 0.0 0.0
0.0 0.0 0.0 0.0 0.0 0.0 0.0 0.0 0.0 0.0 0.0 0.0 10.0 7.6 3.7 0.0 2.0 2.4 0.0 0.0 0.0 0.0 0.4 0.8 6.6 2.4 3.7 8.0 3.3 0.0 0.0 0.0 0.0 0.0 0.0 0.0 0.0 0.0 0.0 0.0 0.0 0.0 0.0 0.0
0.0 0.0 0.0 0.0 0.0 3.8 0.0 0.0 0.0 0.0 0.0 7.2 10.2 9.0 10.2 0.0 1.2 0.2 1.6 0.0 7.8 1.0 5.4 4.0 3.3 7.1 9.0 3.4 0.5 0.0 0.0 0.0 0.0 0.0 0.0 0.0 0.0 0.0 0.0 0.0 0.0 0.0 0.0 0.0
0.0 0.0 3.8 8.6 0.0 0.0 0.0 0.0 1.2 1.5 0.8 4.0 11.5 6.6 7.8 1.8 4.8 6.2 5.6 4.6 7.6 10.0 6.6 4.6 8.6 7.7 0.0 0.0 0.0 0.0 0.0 0.0 0.0 0.0 0.0 0.0 0.0 0.0 0.0 0.0 0.0 0.0 0.0 0.0
0.0 3.4 4.8 0.0 0.0 0.0 1.8 9.2 8.4 7.8 10.2 7.4 7.2 5.4 6.8 2.1 7.2 7.8 7.8 8.0 9.2 13.8 11.1 10.0 10.6 10.4 6.0 3.4 3.4 2.6 2.2 2.4 3.5 2.4 0.0 0.0 0.0 0.0 0.0 0.0 0.0 0.0 0.0 0.0
0.0 0.0 0.0 0.0 1.8 6.8 9.6 10.8 9.4 9.4 12.1 7.8 11.4 7.6 6.0 6.4 1.9 6.4 6.7 10.1 10.4 14.2 8.4 10.0 12.4 10.4 8.4 6.8 8.4 7.4 6.2 4.4 5.8 4.6 3.1 0.9 3.2 1.7 1.5 0.0 0.0 0.5 3.3 4.6
0.0 1.7 8.0 8.0 12.8 13.6 13.8 15.3 13.3 12.5 9.0 8.0 8.8 10.2 7.4 7.4 5.4 8.4 8.6 10.6 12.2 6.8 10.6 13.1 13.1 11.8 9.6 9.4 8.4 10.0 8.8 9.2 8.2 7.0 5.3 3.0 5.4 4.6 3.8 2.3 3.7 4.2 5.4 6.9
7.4 12.4 16.2 16.6 17.4 16.9 15.7 15.4 13.0 12.1 9.6 9.5 9.4 9.2 9.8 9.1 9.5 9.0 12.9 10.0 8.0 12.1 13.5 15.8 14.9 12.6 12.2 12.0 11.8 12.4 12.5 11.0 9.9 10.0 9.7 8.1 8.5 7.6 7.3 8.3 7.8 7.3 8.4 8.4
13.5 13.7 18.4 17.7 14.8 14.9 14.3 13.6 12.5 12.5 10.4 8.0 8.6 7.2 6.6 10.0 11.0 10.4 10.2 12.5 15.9 17.4 17.1 16.7 14.7 13.2 13.1 13.6 13.4 13.7 14.0 14.1 13.4 13.1 13.0 12.8 12.0 11.6 11.8 11.3 11.0 11.4 11.7 12.9
13.9 16.4 17.5 16.9 16.9 17.0 16.2 15.2 14.3 13.1 12.3 8.9 5.6 8.6 11.4 13.9 14.2 15.2 17.1 17.4 18.3 18.2 15.5 14.2 13.9 14.5 14.3 14.3 14.2 14.4 14.5 14.8 14.7 13.7 13.5 13.8 13.7 13.8 14.0 15.2 14.7 14.8 16.1 16.7
14.8 18.2 16.6 17.3 17.9 16.8 16.1 15.7 14.5 13.3 12.5 13.5 12.3 14.4 16.7 13.2 16.5 17.9 16.7 19.2 17.4 15.6 15.1 14.3 14.2 14.7 14.8 14.4 14.4 14.6 14.7 15.2 15.3 15.4 15.5 15.9 15.7 16.0 16.5 16.3 16.2 17.5 17.7 17.7